Wind_Speed
10 5 1 3 3 5 2 4 2 4 5 3 4 5 5 3 5 4 6 29 32 43 41 37 34 31 28 27 26 26 28 29 29 30 29 28 27 26 26 26 24 20 17 15 15 13 12 11 12
7 2 3 3 4 2 3 3 5 2 5 9 4 2 1 8 4 6 4 20 32 44 42 39 35 32 29 27 26 26 27 28 29 29 28 27 26 26 27 26 23 19 17 16 14 13 12 12 12
4 5 3 4 3 6 4 4 4 5 8 6 5 3 2 3 2 3 4 25 32 39 41 40 37 34 31 28 26 25 25 27 28 28 28 27 27 27 27 25 22 19 17 15 13 12 12 12 13
2 6 4 4 6 4 4 3 4 3 7 8 6 4 5 22 15 11 6 27 35 41 38 38 36 34 31 29 27 26 26 27 28 28 28 28 27 27 26 24 21 18 16 14 12 12 12 13 13
5 3 4 2 4 4 3 4 5 4 4 6 8 10 6 10 19 8 12 20 34 41 39 39 36 35 33 30 27 26 27 27 28 29 28 28 27 26 25 23 20 17 15 14 12 12 12 12 12
4 3 4 3 4 5 5 3 1 3 3 8 9 16 3 13 15 3 9 13 20 28 31 35 36 34 33 30 28 26 26 27 28 29 28 26 26 25 23 21 19 17 15 13 12 12 12 11 11
6 4 4 4 3 5 2 5 4 3 3 4 6 7 7 16 12 5 10 10 18 21 27 30 31 33 31 28 27 26 25 25 27 27 26 26 25 23 22 20 19 16 14 13 12 11 11 10 9
4 4 3 3 3 5 2 5 2 5 5 7 5 5 8 4 9 8 6 8 14 18 18 13 21 28 31 29 27 27 26 25 25 25 25 25 24 22 21 19 17 15 14 12 12 11 11 10 8
4 4 1 2 4 4 5 7 4 3 4 6 4 4 7 4 4 7 6 5 9 9 13 13 14 20 25 30 29 27 27 26 25 25 25 24 23 22 20 18 17 15 14 12 11 10 9 9 8
5 4 8 4 3 3 8 4 6 2 4 3 6 7 9 10 3 7 6 6 6 10 14 17 18 21 25 26 27 29 28 29 28 28 28 26 24 21 19 18 16 15 13 12 11 10 9 9 9
1 4 3 3 4 4 4 8 2 2 2 4 5 9 8 7 6 6 9 13 18 17 16 20 21 25 31 25 27 29 30 30 30 29 28 27 25 22 20 18 17 16 14 12 12 11 10 10 8
2 4 2 4 4 5 4 6 7 5 6 6 7 9 5 8 8 9 8 12 17 22 31 31 29 28 27 29 33 29 33 32 31 31 30 27 22 25 23 21 19 17 15 14 13 12 11 9 7
3 1 4 8 8 6 5 7 8 6 11 8 7 8 9 9 10 19 17 15 14 24 30 35 36 36 34 27 27 31 33 34 37 35 32 25 23 26 27 24 21 18 16 15 14 13 13 9 6
2 3 8 6 9 4 6 6 2 7 9 9 4 7 9 8 11 13 16 20 17 19 25 33 36 40 38 33 31 28 28 31 33 37 38 36 34 33 30 27 24 20 18 15 14 12 11 9 5
4 5 7 3 1 6 4 4 5 9 7 8 9 7 7 7 8 13 19 25 28 26 23 27 34 40 40 37 33 28 30 25 31 31 34 36 36 34 32 28 26 22 18 16 14 12 10 8 5
5 4 4 5 6 6 2 7 4 12 5 11 10 8 7 8 8 13 20 23 27 28 21 25 30 37 41 40 39 34 30 32 33 34 32 34 35 33 33 31 27 23 20 18 16 14 10 7 6
6 6 5 7 3 5 3 15 8 10 9 10 10 9 9 9 9 19 23 20 24 28 28 25 29 33 40 40 39 36 37 34 37 36 35 34 35 33 33 31 27 24 22 20 19 15 12 8 7
7 7 7 10 5 7 10 20 13 11 8 10 10 12 12 12 14 17 25 25 22 22 30 30 29 35 36 33 34 34 37 39 39 38 37 35 35 34 33 32 27 23 22 21 19 17 12 10 11
4 5 11 11 10 6 16 18 21 10 8 9 12 12 13 17 17 18 21 25 19 18 24 30 27 29 34 34 34 32 35 38 40 39 36 34 35 35 34 33 30 24 22 21 19 18 14 15 14
6 8 9 15 8 4 11 24 26 11 9 13 13 12 12 13 14 11 17 21 24 19 21 24 27 29 37 36 36 31 36 36 44 41 34 34 35 37 38 35 32 28 24 21 21 22 20 12 16
4 7 13 16 13 6 6 19 19 4 9 8 8 9 11 13 15 14 9 17 17 17 20 25 27 31 37 38 27 22 26 22 25 34 38 40 37 37 40 38 34 30 26 22 21 25 26 15 13
6 5 6 11 7 5 4 10 33 7 6 4 8 8 10 13 13 11 10 10 15 24 21 25 27 31 35 35 32 29 32 27 31 34 37 37 37 37 39 40 35 31 28 25 25 27 26 19 15
6 6 8 7 14 7 6 5 4 11 11 12 8 8 9 9 9 9 7 8 5 7 13 24 28 31 30 33 32 34 29 32 28 33 37 36 36 39 42 42 37 32 28 28 29 29 26 21 18
5 5 12 4 1 7 14 12 4 5 6 5 5 6 7 8 6 7 6 0 4 8 6 8 15 27 31 37 37 33 34 30 24 27 27 34 37 38 35 38 39 32 31 31 29 29 24 22 18
8 5 4 5 2 6 5 5 16 10 7 7 11 13 8 6 5 7 8 3 1 8 7 6 9 19 24 32 35 37 39 33 35 33 29 26 29 30 38 41 41 35 32 31 31 27 23 19 18
6 5 3 5 4 6 10 7 6 7 9 12 8 8 5 3 6 7 8 6 2 3 8 9 9 11 17 26 32 37 41 36 36 34 31 29 30 31 38 36 40 37 37 32 31 27 24 20 17
1 4 4 4 9 7 5 6 8 17 17 8 6 7 8 8 8 8 8 10 14 6 9 13 16 18 17 25 32 33 33 35 37 33 33 33 34 31 34 37 39 39 38 35 32 29 26 23 20
7 3 3 2 5 7 5 6 8 7 5 5 7 6 6 6 8 7 6 9 18 21 19 17 18 21 25 26 31 32 35 39 39 32 32 34 33 33 34 39 39 37 39 36 33 31 28 26 21
3 3 3 3 4 4 8 5 6 6 4 3 5 6 7 8 9 12 8 11 16 22 21 18 17 22 26 26 32 32 32 36 35 34 32 36 33 35 38 41 40 40 36 39 36 30 28 26 23
10 10 9 5 5 5 6 18 13 11 2 9 11 11 11 7 10 12 10 13 16 20 22 22 22 24 26 27 27 32 33 34 34 32 32 36 36 36 38 41 41 40 42 39 41 37 30 29 26
Wind_Direction
341 343 13 47 53 67 289 263 256 311 19 219 248 188 209 281 176 228 324 173 172 167 167 167 169 168 165 162 158 158 159 160 159 157 157 157 157 157 157 156 154 152 149 145 142 139 137 133 135
354 4 58 84 105 111 273 259 253 310 278 290 242 241 184 276 258 291 104 175 177 169 168 167 170 169 168 165 163 162 163 164 163 163 163 163 161 160 160 158 156 153 148 145 143 140 138 135 136
38 31 80 100 127 160 195 209 46 320 309 335 343 269 226 241 244 243 242 173 173 170 170 169 171 172 171 168 168 166 165 165 167 167 166 166 164 163 163 162 160 157 151 147 144 141 141 141 142
45 17 36 114 208 239 181 347 357 347 331 346 321 326 323 42 350 325 206 176 176 175 173 172 172 173 173 170 171 168 166 167 168 169 168 167 166 166 166 166 164 163 159 155 152 149 146 147 147
48 58 61 351 261 276 281 271 330 40 349 316 338 321 299 359 354 19 163 174 174 175 175 174 175 176 175 174 173 171 169 170 171 170 170 170 169 169 168 170 170 170 165 160 157 152 149 148 150
47 89 83 231 281 278 285 283 15 62 10 316 355 326 297 346 350 91 156 164 174 174 175 175 178 179 178 177 175 175 173 173 173 172 173 173 172 171 171 172 173 171 167 165 159 155 152 151 151
112 91 181 168 258 310 263 347 47 348 6 329 304 310 293 0 41 83 151 169 177 177 177 177 181 182 181 180 179 178 177 177 176 176 176 176 174 174 174 176 174 173 172 167 163 159 154 152 153
104 89 135 210 197 270 297 12 331 43 297 326 356 337 321 328 53 91 114 159 179 173 176 177 186 186 183 182 183 182 182 180 181 181 180 179 177 178 178 179 179 179 177 173 169 165 160 154 156
127 67 163 229 182 259 311 23 327 290 278 331 266 281 309 310 89 102 88 116 158 165 178 188 191 197 192 185 184 188 186 185 185 186 186 184 183 182 183 185 185 185 182 178 174 170 163 156 150
81 103 207 221 279 288 319 325 292 309 305 240 294 305 302 316 248 151 154 157 161 176 194 197 198 198 198 194 187 189 187 187 187 188 188 190 189 190 191 191 191 190 189 183 178 174 165 153 143
101 175 209 301 302 4 279 315 284 261 314 236 269 292 289 285 311 252 212 202 197 202 210 209 206 204 197 197 193 192 191 190 190 192 193 195 195 196 200 199 197 196 195 192 186 179 171 158 158
13 268 102 291 317 335 278 302 304 228 228 243 262 264 277 274 292 281 258 239 207 209 223 220 211 207 210 199 198 196 192 194 192 195 197 194 197 201 203 205 202 202 202 198 192 185 178 172 169
146 266 295 292 285 252 256 239 241 257 266 266 279 283 276 279 286 288 281 276 245 223 223 219 217 210 209 202 201 199 196 199 195 195 199 196 200 201 204 206 207 206 208 204 198 186 179 183 183
271 280 286 283 267 266 249 272 12 262 263 305 290 270 278 267 271 288 293 282 262 257 234 227 216 213 206 205 204 204 202 199 198 199 203 204 207 206 205 206 208 209 212 209 205 194 188 193 193
271 306 318 264 245 276 171 314 247 262 299 286 304 292 263 261 263 251 280 281 276 270 249 225 222 213 207 204 210 211 207 204 205 205 207 210 209 207 207 209 210 210 212 214 209 199 197 207 222
354 60 18 303 327 273 182 281 265 285 284 297 288 283 281 285 269 287 303 297 283 267 248 239 219 213 210 204 207 208 210 209 212 215 218 217 214 210 209 211 213 213 213 214 214 204 207 213 228
7 284 287 307 227 275 194 293 275 277 284 277 277 281 275 280 276 293 302 307 312 272 254 237 223 214 212 207 205 202 205 208 215 220 223 221 217 214 215 215 215 214 216 215 215 211 210 213 196
290 299 277 281 285 290 288 283 276 266 261 259 270 279 280 275 266 267 291 291 306 291 263 248 229 220 211 199 200 200 203 210 218 220 223 223 219 217 216 219 219 212 212 212 212 214 205 215 167
254 265 270 279 283 279 291 280 283 269 248 246 252 260 270 274 280 265 271 279 284 278 280 257 244 228 197 191 190 195 200 205 213 218 219 222 221 220 217 219 219 214 210 214 220 220 219 176 170
250 272 283 287 266 245 284 288 283 271 238 238 254 259 258 271 280 272 265 275 277 275 261 260 243 225 202 197 199 200 200 204 210 212 216 221 224 223 220 218 217 214 214 220 227 216 180 172 181
279 272 293 288 306 241 264 280 292 231 246 249 251 254 272 262 272 272 263 272 290 265 251 248 237 226 209 204 197 202 190 196 196 206 215 221 222 224 222 220 218 217 217 221 219 197 186 164 188
287 255 294 295 328 296 91 290 292 273 275 259 274 269 267 276 277 268 270 272 264 268 250 233 240 229 212 200 191 193 191 191 201 205 210 217 220 222 224 224 220 222 223 223 208 197 196 193 178
243 317 286 286 280 290 197 245 94 327 291 276 253 260 270 272 275 275 294 293 310 329 261 241 235 225 210 201 198 194 198 205 203 202 205 211 221 223 222 220 221 222 228 223 211 198 203 209 188
339 339 307 287 207 256 251 217 325 226 225 280 282 248 245 284 306 315 311 208 349 355 345 292 240 227 212 207 200 201 203 202 204 198 201 205 214 214 215 216 219 220 222 219 208 199 202 199 191
29 31 318 332 333 243 341 300 257 277 281 234 255 274 273 246 293 319 321 83 330 2 355 339 288 231 218 214 204 203 207 205 205 201 202 197 196 200 203 210 210 215 216 209 197 192 188 189 180
295 171 175 280 261 269 329 260 249 239 261 253 263 260 276 330 333 310 303 307 301 330 338 322 307 288 242 221 218 213 210 209 210 202 203 201 199 198 199 202 206 208 204 192 188 182 178 175 169
266 221 211 264 259 270 233 269 312 275 273 340 26 36 2 339 322 301 306 311 320 312 313 311 306 292 272 241 228 220 215 211 210 208 206 203 205 202 198 194 203 202 188 182 178 169 160 160 154
187 209 355 332 288 275 253 253 252 348 3 357 358 355 333 308 307 305 304 310 317 319 320 312 292 285 283 261 237 223 213 211 213 204 201 198 199 191 188 192 196 187 172 168 166 159 154 151 141
185 252 223 254 236 268 298 270 196 202 221 329 288 281 295 299 305 307 293 300 311 312 311 302 291 294 282 269 247 226 214 211 205 205 199 197 188 187 183 185 188 176 171 164 160 156 150 143 137
240 254 234 243 246 245 271 281 268 283 260 345 302 319 311 295 301 293 299 308 312 306 301 298 301 300 294 279 265 235 213 206 201 196 197 188 183 184 178 178 174 165 168 167 158 154 148 142 136
Height
758 756 755 756 784 794 800 784 769 763 762 748 742 745 747 740 743 758 715 718 719 722 726 733 740 745 751 753 756 759 762 765 769 772 775 778 780 783 786 789 792 794 796 798 799 801 801 803 804
757 756 756 766 795 807 798 775 773 761 753 745 740 738 740 743 723 719 719 719 722 722 726 731 739 744 750 754 756 760 763 766 770 772 775 779 781 784 787 790 793 795 797 799 800 801 802 804 805
757 756 765 781 801 807 792 769 765 760 748 745 744 733 732 733 720 717 716 719 724 726 727 731 737 743 748 753 757 760 764 767 771 774 777 780 782 785 788 790 793 796 797 799 801 802 802 804 806
758 759 775 791 795 785 773 768 768 763 750 744 744 746 731 732 728 723 718 718 721 726 730 734 739 744 751 754 758 760 764 768 771 775 778 780 783 785 789 792 794 796 797 799 801 802 802 803 805
759 772 798 799 797 786 774 767 764 767 761 755 750 755 745 730 730 727 727 728 724 725 730 735 740 745 749 754 758 761 763 768 772 775 779 781 784 786 788 792 794 796 798 799 801 802 803 804 806
773 780 806 808 795 781 774 765 762 767 765 759 756 750 743 735 730 728 730 733 733 735 738 740 743 747 750 754 759 762 766 768 772 776 779 782 785 787 790 792 794 796 798 800 801 802 803 804 806
778 791 803 801 794 785 771 764 767 768 768 763 755 759 745 738 736 735 733 736 738 741 743 745 748 750 753 757 760 764 768 772 775 778 780 783 786 788 790 793 794 796 798 799 801 802 803 805 806
777 787 798 796 795 788 770 770 767 768 767 756 755 763 758 743 737 738 739 739 742 744 749 752 754 754 753 756 761 764 768 772 776 780 782 784 786 788 791 793 794 796 797 799 800 802 803 804 806
771 799 809 793 788 781 771 778 766 762 766 763 755 753 747 744 740 738 740 743 744 748 750 754 756 759 759 756 758 763 766 770 775 779 783 785 787 788 790 792 794 796 797 799 801 802 803 804 805
783 804 798 785 777 779 778 776 771 767 768 765 758 751 747 745 743 738 738 742 745 746 749 751 754 756 760 761 761 762 764 767 771 776 780 783 787 789 791 793 794 796 798 799 800 802 803 804 806
784 794 784 778 777 777 777 773 767 767 770 763 762 755 748 745 743 742 738 737 738 741 745 748 751 753 752 758 762 762 764 766 769 773 778 782 785 788 790 793 794 796 797 799 800 801 802 804 805
785 778 779 778 774 779 778 771 769 765 763 754 754 751 748 744 742 740 739 738 736 736 736 740 744 749 756 753 755 760 761 763 767 772 776 779 783 786 788 792 793 795 797 798 799 800 801 803 804
782 779 778 777 777 775 772 774 769 763 753 751 752 750 748 746 741 737 736 735 735 735 732 734 738 743 749 752 757 757 760 761 761 766 773 777 779 782 785 788 791 794 796 797 798 798 799 802 803
777 778 779 775 772 773 772 768 764 758 748 749 749 749 746 745 741 737 733 731 730 729 729 731 733 737 741 748 751 755 760 760 761 763 764 768 772 776 781 784 788 791 794 797 798 799 799 801 803
777 783 781 773 770 769 766 770 765 753 750 751 746 745 743 741 740 736 732 729 727 724 723 725 727 729 734 742 748 753 756 761 763 764 764 766 768 772 777 782 785 788 792 796 797 798 799 801 802
782 787 796 774 772 765 764 774 757 749 750 748 743 740 737 735 733 732 729 725 721 720 720 720 721 725 729 733 738 745 753 756 760 763 766 767 769 772 775 778 782 787 790 793 796 796 798 800 801
796 801 794 784 768 770 767 764 754 748 748 747 741 737 734 729 727 725 724 721 717 714 714 714 717 719 722 727 733 737 743 750 754 759 761 764 768 770 775 777 780 784 787 790 794 795 796 800 801
801 798 795 787 774 768 773 758 748 744 745 743 739 733 728 725 719 719 718 717 715 709 708 710 710 712 716 722 729 734 738 742 747 751 756 760 765 768 771 775 779 781 785 787 791 793 794 797 800
789 793 790 777 770 773 762 753 740 740 740 741 736 731 725 717 709 710 711 710 711 710 707 704 705 707 711 715 720 727 729 734 740 745 749 756 761 764 767 771 776 779 782 785 789 791 793 794 798
789 790 786 765 763 769 764 745 724 732 731 725 722 720 718 713 707 704 704 705 703 704 704 702 701 702 704 708 712 716 721 726 731 738 745 750 755 759 763 766 770 774 778 781 784 787 790 791 794
783 786 776 774 762 759 760 741 723 722 719 716 715 713 711 709 704 699 699 699 701 700 699 699 699 697 699 703 710 715 720 725 730 732 737 740 746 754 758 762 766 769 773 776 780 783 785 787 792
787 772 774 773 776 778 757 762 698 713 715 714 713 711 709 703 698 695 694 694 695 694 694 694 694 696 697 701 704 709 709 712 716 722 728 732 739 746 753 759 762 765 769 771 775 780 784 786 787
779 772 775 772 774 775 766 774 722 709 716 712 708 707 705 700 697 693 693 694 694 691 690 689 689 690 695 698 701 703 708 709 712 717 722 729 736 741 745 751 757 761 765 768 771 776 780 783 784
771 774 774 773 778 776 749 757 726 722 714 706 701 699 698 696 694 691 691 694 694 692 688 687 687 688 690 691 695 700 701 705 710 715 719 721 727 733 740 744 751 754 762 765 767 771 775 779 780
781 793 808 793 785 770 756 758 723 713 707 704 699 692 693 693 693 694 693 697 695 692 689 686 687 684 686 689 689 691 695 699 701 706 714 717 722 727 725 736 743 751 757 762 766 768 772 778 777
787 790 819 792 779 765 751 752 728 709 700 692 693 695 694 694 696 696 694 691 693 692 689 686 683 680 683 684 685 686 687 693 696 699 707 711 715 719 725 733 741 744 752 756 763 765 768 775 776
780 788 780 788 774 773 749 728 712 699 696 698 698 700 702 700 697 696 693 688 685 687 686 683 680 676 677 678 680 682 684 687 688 694 700 705 710 717 724 728 737 741 744 753 758 762 766 773 776
777 775 795 799 783 757 740 730 719 713 711 705 702 705 704 702 700 696 692 687 683 680 680 680 678 674 671 671 672 674 676 679 684 689 693 698 705 712 719 725 732 741 740 745 755 761 765 770 778
776 781 778 782 773 755 739 719 709 706 704 704 705 702 700 698 694 691 687 684 682 676 673 674 674 670 666 664 663 664 668 673 677 683 687 692 699 708 712 718 726 732 739 742 748 759 767 772 780
765 766 768 774 758 750 742 709 697 699 698 698 702 697 694 693 691 686 683 679 677 672 668 665 661 659 659 658 658 657 658 662 670 675 684 688 694 702 709 714 723 730 737 743 743 759 769 773 779